Tracking 35237 objects as of 5-Sep-2026
HD Live streaming from Space Station
objects crossing your sky now

DELTA 1 DEB


DELTA 1 DEB is no longer on orbit


NORAD ID: 8575
Int'l Code: 1972-058HC
Launch date: July 23, 1972
Source: United States (US)
Launch site: AIR FORCE WESTERN TEST RANGE (AFWTR)
Decay date: 1978-01-02

Note: This is SATELLITE DEBRIS
Your satellite tracking list
Your tracking list is empty




NASA's NSSDC Master Catalog

Two Line Element Set (TLE):
1 08575U 72058 HC 77354.25976241  .00817950 +00000-0 +00000-0 0  9999
2 08575 098.9986 272.9736 0046545 345.9196 014.0690 15.37631838289872
Source of the keplerian elements: AFSPC